Bei Facebook empfehlenBei Twitter postenGoogle plusPinterest

Das Wetter im Erzgebirge am 20.12.2016

Wetter und Klima am 20.12.2016 Holzhau im Erzgebirge (630m ü.NN)
Letzte gemessene Temperatur und Uhrzeit der Messung23:45:00 Uhr-4.40 °C
Temperatur (Maximum / Höchstwert) und Uhrzeit der Messung00:45:00 Uhr-1.90 °C
Temperatur (Minimum / Tiefstwert) und Uhrzeit der Messung20:45:00-5.10 °C
Errechneter Absolutwert der Temperaturschwankungen zwischen Tmin und Tmax des Tages3.20 K
Errechnete Tagesmitteltemperatur-3.55000 °C
Gesamt - Niederschlag des Tages (in flüssiger Form)0.00 Liter / m²
Luftdruck (Maximum / Höchstwert) und Zeitpunkt der Messung00:15:00 Uhr1023.90 hPa
Luftdruck (Minimum / Tiefstwert) und Zeitpunkt der Messung19:30:00 Uhr1019.30 hPa
Errechneter Absolutwert der Luftdruckschwankungen des Tages4.60 hPa
Höchste gemessene Windgeschwindigkeit und Uhrzeit der Messung23:45:00 Uhr0.00 km/h
Errechnete Windhäufigkeit in Relation zu den Messwerten des Tages0.00000 %
Niedrigste Windkühle (Windchill) und Zeitpunkt der Messung20:45:00 Uhr-5.10 °C
Taupunkt (Maximum / Höchstwert) und Uhrzeit der Messung00:45:00 Uhr-2.50 °C
Taupunkt (Minimum / Tiefstwert) und Uhrzeit der Messung20:45:00-5.90 °C
Anzahl der automatisch eingelesenen Messwerte 96

Detaillierte Wetter- und Klima- Messwerte für den 20.12.2016 in Holzhau im Erzgebirge (630m ü.NN)
ZeitTemperaturLuftdruckRel. LuftfeuchteWindWindrichtungWindchillTaupunktNiederschlag l/m²
23:45:00-4.40 °C1021.10 hPa95.00 %-5.20 °C 
23:30:00-4.40 °C1021.00 hPa95.00 %-5.20 °C 
23:15:00-4.40 °C1020.60 hPa95.00 %-5.20 °C 
23:00:00-4.40 °C1020.90 hPa95.00 %-5.20 °C 
22:45:00-4.40 °C1020.60 hPa95.00 %-5.20 °C 
22:30:00-4.50 °C1020.70 hPa95.00 %-5.30 °C 
22:15:00-4.70 °C1020.60 hPa95.00 %-5.50 °C 
22:00:00-4.70 °C1020.50 hPa95.00 %-5.50 °C 
21:45:00-4.60 °C1020.30 hPa95.00 %-5.40 °C 
21:30:00-4.60 °C1020.30 hPa95.00 %-5.40 °C 
21:15:00-4.70 °C1020.30 hPa95.00 %-5.50 °C 
21:00:00-5.00 °C1020.20 hPa95.00 %-5.80 °C 
20:45:00-5.10 °C1020.00 hPa95.00 %-5.90 °C 
20:30:00-5.00 °C1019.70 hPa95.00 %-5.80 °C 
20:15:00-4.90 °C1019.80 hPa95.00 %-5.70 °C 
20:00:00-4.90 °C1019.50 hPa95.00 %-5.70 °C 
19:45:00-4.90 °C1019.40 hPa95.00 %-5.70 °C 
19:30:00-4.80 °C1019.30 hPa95.00 %-5.60 °C 
19:15:00-4.90 °C1019.40 hPa95.00 %-5.70 °C 
19:00:00-4.90 °C1019.40 hPa95.00 %-5.70 °C 
18:45:00-4.80 °C1019.60 hPa95.00 %-5.60 °C 
18:30:00-4.90 °C1019.60 hPa95.00 %-5.70 °C 
18:15:00-5.00 °C1019.70 hPa95.00 %-5.80 °C 
18:00:00-4.90 °C1019.60 hPa95.00 %-5.70 °C 
17:45:00-4.80 °C1019.80 hPa95.00 %-5.60 °C 
17:30:00-4.70 °C1020.00 hPa95.00 %-5.50 °C 
17:15:00-4.60 °C1020.20 hPa95.00 %-5.40 °C 
17:00:00-4.50 °C1020.20 hPa95.00 %-5.30 °C 
16:45:00-4.40 °C1020.20 hPa95.00 %-5.20 °C 
16:30:00-4.40 °C1020.20 hPa95.00 %-5.20 °C 
16:15:00-4.20 °C1020.30 hPa95.00 %-5.00 °C 
16:00:00-4.20 °C1020.30 hPa95.00 %-5.00 °C 
15:45:00-4.20 °C1020.40 hPa95.00 %-5.00 °C 
15:30:00-4.10 °C1020.30 hPa95.00 %-4.90 °C 
15:15:00-3.90 °C1020.60 hPa95.00 %-4.70 °C 
15:00:00-3.90 °C1020.70 hPa95.00 %-4.70 °C 
14:45:00-3.90 °C1020.90 hPa95.00 %-4.70 °C 
14:30:00-3.80 °C1020.70 hPa95.00 %-4.60 °C 
14:15:00-3.70 °C1021.00 hPa95.00 %-4.50 °C 
14:00:00-3.60 °C1020.80 hPa95.00 %-4.40 °C 
13:45:00-3.50 °C1020.60 hPa95.00 %-4.30 °C 
13:30:00-3.30 °C1020.50 hPa95.00 %-4.10 °C 
13:15:00-3.20 °C1020.60 hPa95.00 %-4.00 °C 
13:00:00-3.10 °C1021.00 hPa95.00 %-3.90 °C 
12:45:00-2.90 °C1021.10 hPa96.00 %-3.50 °C 
12:30:00-2.70 °C1021.10 hPa96.00 %-3.30 °C 
12:15:00-2.70 °C1021.20 hPa96.00 %-3.30 °C 
12:00:00-2.70 °C1021.40 hPa96.00 %-3.30 °C 
11:45:00-2.80 °C1021.60 hPa96.00 %-3.40 °C 
11:30:00-3.00 °C1021.80 hPa96.00 %-3.60 °C 
11:15:00-2.90 °C1022.00 hPa96.00 %-3.50 °C 
11:00:00-3.00 °C1022.00 hPa96.00 %-3.60 °C 
10:45:00-2.90 °C1021.90 hPa96.00 %-3.50 °C 
10:30:00-3.00 °C1022.10 hPa96.00 %-3.60 °C 
10:15:00-3.20 °C1021.80 hPa96.00 %-3.80 °C 
10:00:00-3.40 °C1021.90 hPa96.00 %-4.00 °C 
09:45:00-3.50 °C1021.60 hPa96.00 %-4.10 °C 
09:30:00-3.60 °C1021.40 hPa96.00 %-4.20 °C 
09:15:00-3.50 °C1021.40 hPa96.00 %-4.10 °C 
09:00:00-3.50 °C1021.30 hPa96.00 %-4.10 °C 
08:45:00-3.40 °C1021.30 hPa96.00 %-4.00 °C 
08:30:00-3.40 °C1021.20 hPa96.00 %-4.00 °C 
08:15:00-3.30 °C1021.10 hPa96.00 %-3.90 °C 
08:00:00-3.30 °C1021.20 hPa96.00 %-3.90 °C 
07:45:00-3.20 °C1021.20 hPa96.00 %-3.80 °C 
07:30:00-3.20 °C1021.10 hPa96.00 %-3.80 °C 
07:15:00-3.20 °C1021.20 hPa96.00 %-3.80 °C 
07:00:00-3.20 °C1021.20 hPa96.00 %-3.80 °C 
06:45:00-3.20 °C1021.30 hPa96.00 %-3.80 °C 
06:30:00-3.10 °C1021.30 hPa96.00 %-3.70 °C 
06:15:00-3.00 °C1021.50 hPa96.00 %-3.60 °C 
06:00:00-2.90 °C1022.00 hPa96.00 %-3.50 °C 
05:45:00-2.90 °C1022.10 hPa96.00 %-3.50 °C 
05:30:00-2.90 °C1022.20 hPa96.00 %-3.50 °C 
05:15:00-2.80 °C1022.10 hPa96.00 %-3.40 °C 
05:00:00-2.80 °C1021.90 hPa96.00 %-3.40 °C 
04:45:00-2.80 °C1022.30 hPa96.00 %-3.40 °C 
04:30:00-2.80 °C1022.30 hPa96.00 %-3.40 °C 
04:15:00-2.80 °C1022.30 hPa96.00 %-3.40 °C 
04:00:00-2.70 °C1022.30 hPa96.00 %-3.30 °C 
03:45:00-2.70 °C1022.50 hPa96.00 %-3.30 °C 
03:30:00-2.70 °C1022.90 hPa96.00 %-3.30 °C 
03:15:00-2.60 °C1023.10 hPa96.00 %-3.20 °C 
03:00:00-2.60 °C1023.10 hPa96.00 %-3.20 °C 
02:45:00-2.60 °C1023.00 hPa96.00 %-3.20 °C 
02:30:00-2.50 °C1022.90 hPa96.00 %-3.10 °C 
02:15:00-2.50 °C1022.90 hPa96.00 %-3.10 °C 
02:00:00-2.40 °C1022.90 hPa96.00 %-3.00 °C 
01:45:00-2.20 °C1023.10 hPa96.00 %-2.80 °C 
01:30:00-2.20 °C1023.10 hPa96.00 %-2.80 °C 
01:15:00-2.10 °C1023.50 hPa96.00 %-2.70 °C 
01:00:00-2.10 °C1023.50 hPa96.00 %-2.70 °C 
00:45:00-1.90 °C1023.60 hPa96.00 %-2.50 °C 
00:30:00-1.90 °C1023.40 hPa96.00 %-2.50 °C 
00:15:00-1.90 °C1023.90 hPa96.00 %-2.50 °C 
00:00:00-1.90 °C1023.70 hPa96.00 %-2.50 °C 

Permanenter Link zu dieser Seite: Wetter im Erzgebirge am 20.12.2016
Performance-Info: Die Erstellung der Seite / Statistik(en) / Tabelle(n) erforderte 5 Datenbankserver-Abfrage(n) und dauerte 100 Millisekunden. (Dieser Messwert ist von der Gesamt-Auslastung des Servers abhängig.)
Erzgebirge - Wetter | Erzgebirge - Wetter (Mobilgeräte) | Komplette Klimadatenbank